Regional Weather Roundup
Issued by NWS

Home | Current Version | Previous Version | Graphics & Text | Print | Product List | Glossary Off
Versions: 1 2 3 4 5 6 7 8 9 10 11 12 13 14 15 16 17 18 19 20 21 22 23 24 25 26 27 28 29 30 31 32 33 34 35 36 37 38 39 40 41 42 43 44 45 46 47 48 49 50

000
ASUS43 KTOP 210759
RWRKS

WEATHER ROUNDUP FOR KANSAS
NATIONAL WEATHER SERVICE GOODLAND KS
300 AM CDT THU AUG 21 2014

NOTE:  "FAIR" INDICATES FEW OR NO CLOUDS BELOW 12,000 FEET WITH NO
SIGNIFICANT WEATHER AND/OR OBSTRUCTIONS TO VISIBILITY.

KSZ001>006-013>018-027>032-041>047-210900-
NORTHWEST KANSAS

CITY           SKY/WX    TMP DP  RH WIND       PRES   REMARKS
GOODLAND       CLEAR     65  59  81 NW6       29.89R
HAYS           PTCLDY    81  61  50 S15G21    29.81S
HILL CITY      CLOUDY    84  61  45 S15       29.77S
RUSSELL        PTCLDY    82  58  43 S23G32    29.78F
$$

KSZ061>065-074>080-084>089-210900-
SOUTHWEST KANSAS

CITY           SKY/WX    TMP DP  RH WIND       PRES   REMARKS
DODGE CITY     CLEAR     79  61  53 S13       29.86S
ELKHART          N/A     77  59  54 S15         N/A
GARDEN CITY    CLEAR     78  61  55 S13       29.84F
GREAT BEND     CLEAR     81  57  44 S20       29.82F
LIBERAL        CLEAR     81  59  47 S17G23    29.89S
$$

KSZ066>073-081>083-090>101-210900-
SOUTHEAST KANSAS

CITY           SKY/WX    TMP DP  RH WIND       PRES   REMARKS
CHANUTE        CLEAR     78  68  71 S15       29.93S
COFFEYVILLE    CLEAR     80  70  71 S12       29.92F
HUTCHINSON     CLEAR     81  64  56 S16       29.85F
NEWTON         CLEAR     79  63  57 S18       29.90F
PARSONS        CLEAR     77  69  76 VRB5      29.94F
WICHITA INTL   PTCLDY    79  67  66 S16       29.86F
WICHITA JABRA  CLEAR     79  67  66 S16       29.87F
WINFIELD       CLEAR     80  68  66 S20       29.89F
$$

KSZ007>012-019>026-033>040-048>060-102>105-210900-
NORTHEAST KANSAS

CITY           SKY/WX    TMP DP  RH WIND       PRES   REMARKS
EMPORIA        CLEAR     77  69  76 S17       29.88F
LAWRENCE       PTCLDY    82  69  64 S17       29.87F
MANHATTAN      PTCLDY    82  67  60 S16       29.82F
OLATHE IND     PTCLDY    78  68  71 S14       29.91S
OLATHE EXE     CLEAR     76  67  73 S10       29.90F
SALINA         CLEAR     81  66  60 S16G23    29.81F
TOPEKA BILLARD PTCLDY    83  70  64 S15G25    29.85F
TOPEKA FORBES  MOCLDY    81  69  67 S15G24    29.86F
$$



USA.gov is the U.S. government's official web portal to all federal, state and local government web resources and services.